Stations météo

Publicité
Annecy-Meythet, France (7490): Température de l'air & dewpoint: 20.05.2019 21:00:00 - 26.05.2019 21:00:00 (CEST)Annecy-Meythet, France (7490): Température de l'air 5cm: 20.05.2019 21:00:00 - 26.05.2019 21:00:00 (CEST)Annecy-Meythet, France (7490): Température de l'air -20cm & Température de l'air -100cm: 20.05.2019 21:00:00 - 26.05.2019 21:00:00 (CEST)Annecy-Meythet, France (7490): Vitesse du vent & gusts: 20.05.2019 21:00:00 - 26.05.2019 21:00:00 (CEST)Annecy-Meythet, France (7490): Direction du vent: 20.05.2019 21:00:00 - 26.05.2019 21:00:00 (CEST)Annecy-Meythet, France (7490): reduced air pressure: 20.05.2019 21:00:00 - 26.05.2019 21:00:00 (CEST)Annecy-Meythet, France (7490): visibility: 20.05.2019 21:00:00 - 26.05.2019 21:00:00 (CEST)Annecy-Meythet, France (7490): Quantités de précipitations: 20.05.2019 21:00:00 - 26.05.2019 21:00:00 (CEST)
Date & Time tt [°C] td [°C] tt 5cm [°C] tt -20cm [°C] tt -100cm [°C] ff [km/h] ff [knt] fx [km/h] fx [knt] dd ppp [hPa] vv [km] rr [mm]
26.05.2019 21:00:00 18,0 9,3 15,1 15,8 11,4 9 5 23 12 N 1013,0 60 0,0
26.05.2019 20:00:00 19,8 9,4 17,7 15,9 11,4 13 7 23 12 N 1012,9 51 0,0
26.05.2019 19:00:00 20,5 9,4 21,1 15,9 11,4 11 6 23 13 N 1013,1 47 0,0
26.05.2019 18:00:00 19,4 9,8 18,9 15,8 11,4 14 8 28 15 NNE 1013,6 58 0,0
26.05.2019 17:00:00 20,3 10,1 22,2 15,7 11,4 14 8 26 14 NNE 1013,8 51 0,0
26.05.2019 16:00:00 19,3 10,6 20,7 15,5 11,4 14 7 29 15 NNE 1014,2 49 0,0
26.05.2019 15:00:00 19,5 10,2 21,7 15,3 11,4 9 5 40 22 N 1013,9 60 0,0
26.05.2019 14:00:00 20,3 10,1 23,0 14,8 11,3 17 9 36 19 N 1014,1 42 0,0
26.05.2019 13:00:00 19,8 11,6 26,2 14,4 11,3 16 9 32 17 NNE 1014,6 47 0,0
26.05.2019 12:00:00 19,3 12,1 22,4 13,9 11,3 15 8 31 17 NNE 1015,1 58 0,0
26.05.2019 11:00:00 17,9 11,2 20,2 13,7 11,3 6 4 17 9 NNW 1015,6 20 0,0
26.05.2019 10:00:00 17,0 11,5 17,3 13,6 11,3 3 2 9 5 NW 1016,1 19 0,0
26.05.2019 09:00:00 15,4 10,8 12,8 13,6 11,3 3 2 9 5 ESE 1016,7 19 0,0
26.05.2019 08:00:00 13,1 10,8 9,8 13,7 11,3 0 0 8 4 N 1017,3 20 0,0
26.05.2019 07:00:00 10,4 9,9 7,0 13,9 11,3 2 1 9 5 NW 1017,7 19 0,0
26.05.2019 06:00:00 8,3 7,5 6,7 14,1 11,3 5 3 9 5 NE 1017,9 3,6 0,0
26.05.2019 05:00:00 10,1 9,3 7,5 14,3 11,3 2 1 8 5 NNE 1017,4 9 0,0
26.05.2019 04:00:00 11,3 10,2 10,4 14,4 11,3 5 3 10 5 WNW 1017,2 36 0,0
26.05.2019 03:00:00 11,7 10,4 10,8 14,6 11,3 6 3 11 6 NNW 1017,4 45 0,0
26.05.2019 02:00:00 12,2 9,8 11,0 14,7 11,3 8 5 22 12 NNE 1017,7 60 0,0
26.05.2019 01:00:00 12,9 10,6 11,8 14,8 11,3 9 5 18 10 N 1017,8 56 0,0
26.05.2019 00:00:00 13,2 11,4 12,3 14,9 11,3 8 5 15 8 NW 1018,0 31 0,4
25.05.2019 23:00:00 13,3 12,0 12,4 15,1 11,3 0 0 11 6 N 1018,0 19 0,0
25.05.2019 22:00:00 13,5 12,4 12,2 15,2 11,2 2 1 11 6 WNW 1017,2 11 0,0
25.05.2019 21:00:00 14,1 12,5 13,0 15,3 11,2 2 1 23 12 WNW 1016,6 15 0,2
25.05.2019 20:00:00 14,7 12,9 13,9 15,4 11,2 6 4 15 8 NW 1016,3 8 0,4
25.05.2019 19:00:00 15,2 12,7 14,2 15,4 11,2 5 3 17 9 WNW 1015,9 7 2,0
25.05.2019 18:00:00 17,7 12,4 18,8 15,3 11,2 6 3 10 6 NNE 1014,7 33 0,0
25.05.2019 17:00:00 17,8 12,3 16,7 15,2 11,2 6 3 15 8 SE 1014,6 42 0,4
25.05.2019 16:00:00 18,2 13,1 17,4 15,2 11,2 2 1 9 5 N 1014,5 27 0,0
25.05.2019 15:00:00 18,1 11,9 17,6 15,0 11,2 6 3 22 12 SW 1014,7 5 0,4
25.05.2019 14:00:00 19,7 12,7 19,3 14,7 11,2 15 8 24 13 SE 1014,5 20 0,0
25.05.2019 13:00:00 17,7 12,2 19,5 14,5 11,2 11 6 19 11 ESE 1015,2 47 0,0
25.05.2019 12:00:00 19,0 12,0 22,4 14,2 11,1 10 5 17 9 ESE 1014,9 34 0,0
25.05.2019 11:00:00 17,9 11,2 18,8 14,1 11,2 2 1 5 3 S 1015,2 20 0,0
25.05.2019 10:00:00 16,0 10,7 15,8 14,0 11,2 0 0 5 3 N 1015,4 36 0,0
25.05.2019 09:00:00 14,6 10,8 13,7 14,0 11,2 2 1 5 3 N 1015,4 38 0,0
25.05.2019 08:00:00 13,4 11,3 12,3 14,1 11,1 0 0 11 6 N 1015,1 20 0,0
25.05.2019 07:00:00 12,7 10,6 10,9 14,1 11,1 2 1 8 4 ENE 1015,0 39 0,0
25.05.2019 06:00:00 12,2 9,9 10,8 14,3 11,1 7 4 9 5 NE 1014,9 41 0,0
25.05.2019 05:00:00 12,3 9,7 10,9 14,4 11,1 2 1 7 4 N 1014,4 45 0,0
25.05.2019 04:00:00 12,4 9,6 10,3 14,6 11,1 3 2 9 5 N 1014,4 47 0,0
25.05.2019 03:00:00 11,9 9,3 8,7 14,8 11,1 5 3 10 5 NE 1014,4 20 0,0
25.05.2019 02:00:00 11,9 9,1 9,5 15,1 11,1 7 4 9 5 NE 1014,5 55 0,0
25.05.2019 01:00:00 14,4 9,0 10,5 15,2 11,1 5 3 12 6 N 1014,1 56 0,0
25.05.2019 00:00:00 16,4 8,4 11,8 15,5 11,1 10 5 15 8 NW 1013,5 60 0,0
24.05.2019 23:00:00 16,5 8,5 11,4 15,7 11,1 6 3 18 10 NW 1013,3 60 0,0
24.05.2019 22:00:00 16,4 8,4 11,1 15,9 11,1 10 5 16 8 NNE 1012,9 60 0,0
24.05.2019 21:00:00 17,9 9,0 12,8 16,1 11,1 6 4 12 7 N 1012,1 53 0,0
24.05.2019 20:00:00 19,5 9,7 16,5 16,1 11,1 8 5 22 12 NNE 1011,5 60 0,0
24.05.2019 19:00:00 21,1 9,7 21,5 16,2 11,1 13 7 33 18 N 1010,9 59 0,0
24.05.2019 18:00:00 21,9 10,4 21,2 16,1 11,1 12 7 23 13 NW 1010,8 58 0,0
24.05.2019 17:00:00 21,4 9,0 21,2 15,9 11,1 12 6 34 18 WNW 1011,3 56 0,0
24.05.2019 16:00:00 23,9 7,1 32,2 15,4 11,0 11 6 24 13 WNW 1011,1 60 0,0
24.05.2019 15:00:00 23,5 7,1 32,2 14,9 11,0 7 4 19 10 WNW 1011,7 20 0,0
24.05.2019 14:00:00 22,8 10,9 31,0 14,4 11,0 9 5 20 11 W 1012,0 41 0,0
24.05.2019 13:00:00 21,9 10,1 27,0 13,9 11,0 10 5 18 10 W 1012,7 42 0,0
24.05.2019 12:00:00 20,5 9,7 26,3 13,5 11,0 4 2 13 7 SW 1013,5 20 0,0
24.05.2019 11:00:00 19,9 10,6 24,0 13,3 11,0 3 2 8 4 WSW 1013,9 52 0,0
24.05.2019 10:00:00 18,2 9,5 17,1 13,2 11,0 2 1 8 4 ESE 1014,7 44 0,0
24.05.2019 09:00:00 14,3 8,9 12,9 13,2 11,0 2 1 11 6 S 1015,4 19 0,0
24.05.2019 08:00:00 12,2 9,0 9,4 13,2 11,0 5 3 10 5 NE 1015,9 36 0,0
24.05.2019 07:00:00 9,6 8,0 6,6 13,4 11,0 6 4 15 8 ENE 1016,4 18 0,0
24.05.2019 06:00:00 8,6 7,1 6,5 13,6 11,0 9 5 12 6 NE 1016,3 30 0,0
24.05.2019 05:00:00 9,4 7,5 7,2 13,8 11,0 6 4 10 6 NE 1016,0 41 0,0
24.05.2019 04:00:00 10,0 7,8 8,5 14,1 11,0 4 2 12 6 NNE 1016,0 19 0,0
24.05.2019 03:00:00 10,0 7,8 7,7 14,3 11,0 10 6 14 7 NE 1016,0 20 0,0
24.05.2019 02:00:00 10,5 7,9 7,8 14,5 11,0 7 4 13 7 NNE 1016,1 47 0,0
24.05.2019 01:00:00 10,2 7,8 8,2 14,8 11,0 10 5 13 7 ENE 1016,3 44 0,0
24.05.2019 00:00:00 11,2 8,2 8,7 15,1 11,0 11 6 18 10 ENE 1016,2 60 0,0
23.05.2019 23:00:00 13,9 8,1 9,2 15,4 10,9 5 3 13 7 N 1015,7 60 0,0
23.05.2019 22:00:00 16,0 8,2 9,9 15,7 11,0 7 4 12 6 NW 1015,1 60 0,0
23.05.2019 21:00:00 18,4 5,9 11,8 15,8 11,0 3 1 10 5 NW 1014,0 60 0,0
23.05.2019 20:00:00 22,7 4,2 18,1 15,9 11,0 6 4 26 14 W 1012,9 60 0,0
23.05.2019 19:00:00 23,6 5,5 26,1 15,8 11,0 6 3 18 10 WNW 1012,7 18 0,0
23.05.2019 18:00:00 23,3 3,2 28,0 15,6 10,9 9 5 19 10 WNW 1013,1 60 0,0
23.05.2019 17:00:00 23,5 6,3 32,0 15,2 10,9 8 4 19 10 WSW 1013,4 9 0,0
23.05.2019 16:00:00 23,0 6,3 29,9 14,7 10,9 6 3 26 14 W 1014,1 56 0,0
23.05.2019 15:00:00 21,9 8,4 30,0 14,2 10,9 12 6 23 12 WNW 1014,7 20 0,0
23.05.2019 14:00:00 21,2 8,5 28,0 13,7 10,9 10 6 25 13 NW 1015,1 20 0,0
23.05.2019 13:00:00 19,9 8,9 27,6 13,1 10,9 10 5 26 14 WNW 1015,9 46 0,0
23.05.2019 12:00:00 19,0 9,2 26,0 12,6 10,9 10 5 20 11 NW 1016,7 20 0,0
23.05.2019 11:00:00 18,0 9,3 22,5 12,3 10,9 6 3 14 8 N 1016,9 32 0,0
23.05.2019 10:00:00 16,5 8,2 18,7 12,2 10,9 4 2 13 7 SE 1017,6 20 0,0
23.05.2019 09:00:00 14,3 6,1 10,3 12,2 10,9 3 2 7 4 SSE 1018,2 60 0,0
23.05.2019 08:00:00 11,3 6,6 5,9 12,3 10,9 2 1 5 3 NW 1018,9 20 0,0
23.05.2019 07:00:00 8,0 5,3 3,6 12,6 10,9 0 0 8 5 N 1019,3 44 0,0
23.05.2019 06:00:00 6,0 4,3 3,6 12,8 10,9 6 4 12 7 NNE 1019,7 33 0,0
23.05.2019 05:00:00 6,6 4,3 3,6 13,2 10,9 3 2 13 7 NNE 1019,6 58 0,0
23.05.2019 04:00:00 6,5 4,7 4,3 13,4 10,9 9 5 13 7 ENE 1019,7 20 0,0
23.05.2019 03:00:00 7,6 5,1 4,7 13,8 10,9 8 4 10 5 ENE 1019,6 55 0,0
23.05.2019 02:00:00 9,9 5,5 5,4 14,1 10,9 6 3 10 5 NE 1019,2 60 0,0
23.05.2019 01:00:00 11,2 5,3 6,7 14,3 10,9 8 4 15 8 NNW 1018,7 60 0,0
23.05.2019 00:00:00 13,5 4,6 7,3 14,6 10,9 5 3 16 8 NW 1018,3 60 0,0
22.05.2019 23:00:00 14,0 5,1 8,4 14,9 10,9 7 4 18 10 N 1018,3 60 0,0
22.05.2019 22:00:00 15,4 5,6 11,4 15,1 10,9 11 6 29 15 NNE 1017,7 60 0,0
22.05.2019 21:00:00 17,1 6,3 13,2 15,3 10,9 10 6 24 13 N 1016,7 32 0,0
22.05.2019 20:00:00 19,6 6,7 17,4 15,3 10,8 13 7 29 16 N 1016,0 31 0,0
22.05.2019 19:00:00 20,7 7,7 24,3 15,2 10,8 14 8 31 17 NNW 1015,5 56 0,0
22.05.2019 18:00:00 21,2 6,7 27,7 15,1 10,8 16 9 31 17 NNW 1015,5 20 0,0
22.05.2019 17:00:00 21,4 6,5 27,8 14,8 10,9 15 8 30 16 NNW 1015,5 37 0,0
22.05.2019 16:00:00 21,3 6,8 20,7 14,4 10,8 13 7 34 18 N 1015,6 18 0,0
22.05.2019 15:00:00 20,5 7,8 26,1 13,9 10,8 16 9 36 20 NNE 1015,9 52 0,0
22.05.2019 14:00:00 20,4 6,3 26,8 13,4 10,8 18 10 35 19 NNE 1016,2 58 0,0
22.05.2019 13:00:00 19,1 6,6 26,0 12,8 10,8 23 13 37 20 NE 1016,6 60 0,0
22.05.2019 12:00:00 18,6 8,0 24,8 12,3 10,8 22 12 35 19 NE 1016,7 19 0,0
22.05.2019 11:00:00 17,9 11,0 22,4 12,0 10,8 11 6 27 14 NE 1016,8 20 0,0
22.05.2019 10:00:00 16,2 9,6 19,0 11,9 10,8 5 3 14 8 NW 1017,3 19 0,0
22.05.2019 09:00:00 14,5 9,1 11,4 11,9 10,8 3 2 7 4 ESE 1017,8 20 0,0
22.05.2019 08:00:00 12,1 8,6 6,2 12,0 10,8 2 1 8 5 SSE 1018,4 18 0,0
22.05.2019 07:00:00 7,9 7,0 3,7 12,3 10,8 2 1 5 3 NE 1018,9 17 0,0
22.05.2019 06:00:00 6,7 5,6 3,7 12,5 10,8 3 1 9 5 NNE 1018,7 18 0,0
22.05.2019 05:00:00 7,2 5,5 4,1 12,8 10,8 4 2 8 4 NNE 1018,3 19 0,0
22.05.2019 04:00:00 7,3 5,9 4,9 13,0 10,8 6 3 10 5 NE 1018,3 19 0,0
22.05.2019 03:00:00 8,5 6,5 6,1 13,2 10,8 8 4 12 6 NE 1017,8 44 0,0
22.05.2019 02:00:00 10,1 7,0 6,7 13,5 10,8 9 5 11 6 NNW 1017,4 44 0,0
22.05.2019 01:00:00 10,9 7,6 7,7 13,7 10,8 8 4 14 8 NNW 1017,5 50 0,0
22.05.2019 00:00:00 12,3 7,6 7,7 13,9 10,8 10 6 16 9 NNE 1017,3 48 0,0
21.05.2019 23:00:00 13,3 7,7 8,9 14,1 10,7 7 4 23 12 N 1017,0 54 0,0
21.05.2019 22:00:00 14,4 7,2 11,2 14,3 10,8 13 7 32 18 NNE 1016,2 57 0,0
21.05.2019 21:00:00 16,0 7,2 13,4 14,5 10,8 15 8 31 17 N 1015,1 59 0,0
21.05.2019 20:00:00 17,7 7,1 17,0 14,5 10,8 15 8 35 19 N 1014,2 30 0,0
21.05.2019 19:00:00 18,1 7,5 17,9 14,5 10,8 22 12 38 21 NNE 1013,7 49 0,0
21.05.2019 18:00:00 18,9 8,2 20,0 14,4 10,8 16 9 38 20 N 1013,4 19 0,0
21.05.2019 17:00:00 17,9 8,2 19,2 14,2 10,8 23 13 38 20 NNE 1013,4 41 0,0
21.05.2019 16:00:00 19,8 9,4 19,7 13,9 10,8 18 10 39 21 NNE 1012,9 38 0,0
21.05.2019 15:00:00 19,4 8,7 21,3 13,5 10,8 15 8 33 18 NNE 1012,8 20 0,0
21.05.2019 14:00:00 19,0 10,5 20,6 13,0 10,8 4 2 25 13 NNW 1012,9 33 0,0
21.05.2019 13:00:00 18,7 10,3 20,0 12,7 10,8 5 3 17 9 E 1013,3 19 0,0
21.05.2019 12:00:00 16,2 9,1 16,5 12,4 10,8 6 3 14 8 NE 1013,9 20 0,2
21.05.2019 11:00:00 15,2 9,8 16,5 12,2 10,8 3 1 11 6 N 1014,3 29 0,0
21.05.2019 10:00:00 15,5 11,9 13,3 12,1 10,8 2 1 9 5 ENE 1014,1 14 0,0
21.05.2019 09:00:00 12,3 10,2 11,9 12,0 10,7 2 1 7 4 SE 1014,6 9 0,0
21.05.2019 08:00:00 11,3 10,2 10,7 12,1 10,8 2 1 5 3 ESE 1014,4 10 0,0
21.05.2019 07:00:00 10,5 9,9 9,2 12,2 10,8 3 1 5 3 NW 1014,1 8 0,0
21.05.2019 06:00:00 10,5 9,7 9,5 12,2 10,7 3 2 8 4 NW 1014,0 8 0,0
21.05.2019 05:00:00 10,7 9,9 10,3 12,3 10,7 0 0 4 2 N 1013,8 8 0,0
21.05.2019 04:00:00 10,7 9,6 10,1 12,3 10,7 3 2 7 4 WSW 1013,7 11 0,0
21.05.2019 03:00:00 10,9 9,8 10,3 12,4 10,7 4 2 11 6 SW 1013,5 10 0,0
21.05.2019 02:00:00 11,0 9,7 9,9 12,5 10,7 6 3 12 7 W 1013,5 14 0,0
21.05.2019 01:00:00 11,0 10,1 9,9 12,5 10,7 3 2 11 6 W 1013,5 11 0,0
21.05.2019 00:00:00 11,5 10,6 10,7 12,6 10,7 4 2 8 4 SSW 1013,4 9 0,0
20.05.2019 23:00:00 11,6 10,5 10,9 12,6 10,7 4 2 11 6 SW 1013,1 10 0,0
20.05.2019 22:00:00 11,9 10,6 11,2 12,7 10,7 5 3 13 7 SW 1012,6 10 0,0
20.05.2019 21:00:00 12,1 10,8 11,6 12,8 10,7 9 5 12 6 SW 1011,8 13 0,0

tt = Température de l'air
td = dewpoint
tt 5cm = Température de l'air 5cm
tt -20cm = Température de l'air -20cm
tt -100cm = Température de l'air -100cm
ff = Vitesse du vent
fx = gusts
dd = Direction du vent
ppp = reduced air pressure
vv = visibility
rr = Quantités de précipitations

stations d'obs. à proximité